[Date Prev][Date Next][Thread Prev][Thread Next] - [Date Index][Thread Index][Author Index]

2 Line ISS Keps 11-28



ISS
1 25544U 98067A   01332.18513338  .00043644  00000-0  48353-3 0  7660
2 25544  51.6407 343.7589 0010349  28.1831  91.6079 15.62467153172679


----
Via the sarex mailing list at AMSAT.ORG courtesy of AMSAT-NA.
To unsubscribe, send "unsubscribe sarex" to Majordomo@amsat.org



AMSAT Top AMSAT Home